Time,TemperatureF,DewpointF,PressureIn,WindDirection,WindDirectionDegrees,WindSpeedMPH,WindSpeedGustMPH,Humidity,HourlyPrecipIn,Conditions,Clouds,dailyrainin,SoftwareType,DateUTC
2013-03-28 00:02:00,24.0,13.0,-100.00,NW,325,5.0,6.0,62,0.00,,,-99.99,,2013-03-28 06:02:00,
2013-03-28 00:12:00,24.0,13.0,-100.00,NW,325,5.0,6.0,62,0.00,,,-99.99,,2013-03-28 06:12:00,
2013-03-28 00:22:00,22.0,13.0,-100.00,NNW,330,4.0,6.0,66,0.00,,,-99.99,,2013-03-28 06:22:00,
2013-03-28 00:32:00,22.0,13.0,-100.00,NNW,345,6.0,7.0,68,0.00,,,-99.99,,2013-03-28 06:32:00,
2013-03-28 00:42:00,22.0,14.0,-100.00,NW,305,4.0,7.0,70,0.00,,,-99.99,,2013-03-28 06:42:00,
2013-03-28 00:52:00,21.0,14.0,-100.00,West,280,4.0,6.0,71,0.00,,,-99.99,,2013-03-28 06:52:00,
2013-03-28 01:02:00,21.0,14.0,-100.00,NNW,345,3.0,6.0,72,0.00,,,-99.99,,2013-03-28 07:02:00,
2013-03-28 01:12:00,21.0,14.0,-100.00,NNW,340,4.0,4.0,73,0.00,,,-99.99,,2013-03-28 07:12:00,
2013-03-28 01:22:00,20.0,14.0,-100.00,NNW,330,4.0,5.0,74,0.00,,,-99.99,,2013-03-28 07:22:00,
2013-03-28 01:32:00,20.0,13.0,-100.00,NW,325,6.0,7.0,74,0.00,,,-99.99,,2013-03-28 07:32:00,
2013-03-28 01:42:00,20.0,13.0,-100.00,NW,320,6.0,7.0,74,0.00,,,-99.99,,2013-03-28 07:42:00,
2013-03-28 01:52:00,19.0,13.0,-100.00,NW,325,6.0,6.0,75,0.00,,,-99.99,,2013-03-28 07:52:00,
2013-03-28 02:02:00,19.0,13.0,-100.00,NW,315,4.0,6.0,76,0.00,,,-99.99,,2013-03-28 08:02:00,
2013-03-28 02:12:00,19.0,13.0,-100.00,West,270,4.0,6.0,77,0.00,,,-99.99,,2013-03-28 08:12:00,
2013-03-28 02:21:00,19.0,13.0,-100.00,West,280,6.0,7.0,74,0.00,,,-99.99,,2013-03-28 08:21:00,
2013-03-28 02:32:00,19.0,13.0,-100.00,West,270,6.0,7.0,74,0.00,,,-99.99,,2013-03-28 08:32:00,
2013-03-28 02:42:00,20.0,13.0,-100.00,West,280,4.0,7.0,74,0.00,,,-99.99,,2013-03-28 08:42:00,
2013-03-28 02:52:00,19.0,12.0,-100.00,NW,315,4.0,6.0,75,0.00,,,-99.99,,2013-03-28 08:52:00,
2013-03-28 03:02:00,18.0,12.0,-100.00,NW,320,4.0,6.0,77,0.00,,,-99.99,,2013-03-28 09:02:00,
2013-03-28 03:12:00,18.0,13.0,-100.00,NW,320,4.0,7.0,79,0.00,,,-99.99,,2013-03-28 09:12:00,
2013-03-28 03:22:00,18.0,13.0,-100.00,WNW,285,5.0,6.0,79,0.00,,,-99.99,,2013-03-28 09:22:00,
2013-03-28 03:32:00,17.0,12.0,-100.00,WNW,290,7.0,7.0,79,0.00,,,-99.99,,2013-03-28 09:32:00,
2013-03-28 03:42:00,17.0,11.0,-100.00,WNW,290,6.0,7.0,79,0.00,,,-99.99,,2013-03-28 09:42:00,
2013-03-28 03:52:00,17.0,12.0,-100.00,WSW,255,4.0,6.0,79,0.00,,,-99.99,,2013-03-28 09:52:00,
2013-03-28 04:03:00,18.0,13.0,-100.00,NW,305,3.0,7.0,80,0.00,,,-99.99,,2013-03-28 10:03:00,
2013-03-28 04:12:00,18.0,13.0,-100.00,WNW,295,5.0,6.0,80,0.00,,,-99.99,,2013-03-28 10:12:00,
2013-03-28 04:22:00,18.0,13.0,-100.00,West,265,6.0,6.0,79,0.00,,,-99.99,,2013-03-28 10:22:00,
2013-03-28 04:33:00,18.0,12.0,-100.00,NW,320,5.0,6.0,79,0.00,,,-99.99,,2013-03-28 10:33:00,
2013-03-28 04:42:00,18.0,12.0,-100.00,WNW,295,6.0,6.0,79,0.00,,,-99.99,,2013-03-28 10:42:00,
2013-03-28 04:52:00,18.0,13.0,-100.00,WNW,295,4.0,7.0,77,0.00,,,-99.99,,2013-03-28 10:52:00,
2013-03-28 05:02:00,18.0,12.0,-100.00,NW,320,4.0,6.0,78,0.00,,,-99.99,,2013-03-28 11:02:00,
2013-03-28 05:12:00,17.0,11.0,-100.00,NW,310,4.0,6.0,78,0.00,,,-99.99,,2013-03-28 11:12:00,
2013-03-28 05:23:00,17.0,11.0,-100.00,WNW,285,5.0,7.0,79,0.00,,,-99.99,,2013-03-28 11:23:00,
2013-03-28 05:32:00,17.0,11.0,-100.00,WNW,290,4.0,6.0,79,0.00,,,-99.99,,2013-03-28 11:32:00,
2013-03-28 05:42:00,17.0,12.0,-100.00,NW,305,4.0,7.0,79,0.00,,,-99.99,,2013-03-28 11:42:00,
2013-03-28 05:52:00,17.0,11.0,-100.00,West,260,4.0,6.0,79,0.00,,,-99.99,,2013-03-28 11:52:00,
2013-03-28 06:02:00,17.0,11.0,-100.00,NNW,345,4.0,6.0,79,0.00,,,-99.99,,2013-03-28 12:02:00,
2013-03-28 06:12:00,16.0,11.0,-100.00,West,265,4.0,5.0,80,0.00,,,-99.99,,2013-03-28 12:12:00,
2013-03-28 06:22:00,16.0,11.0,-100.00,NW,315,4.0,6.0,80,0.00,,,-99.99,,2013-03-28 12:22:00,
2013-03-28 06:32:00,17.0,12.0,-100.00,NW,305,5.0,8.0,80,0.00,,,-99.99,,2013-03-28 12:32:00,
2013-03-28 06:42:00,17.0,12.0,-100.00,WNW,295,4.0,7.0,80,0.00,,,-99.99,,2013-03-28 12:42:00,
2013-03-28 06:52:00,17.0,12.0,-100.00,NW,320,4.0,7.0,79,0.00,,,-99.99,,2013-03-28 12:52:00,
2013-03-28 07:02:00,18.0,13.0,-100.00,NW,305,4.0,6.0,79,0.00,,,-99.99,,2013-03-28 13:02:00,
2013-03-28 07:12:00,17.0,11.0,-100.00,WNW,300,6.0,7.0,79,0.00,,,-99.99,,2013-03-28 13:12:00,
2013-03-28 07:22:00,17.0,11.0,-100.00,NNW,345,6.0,9.0,79,0.00,,,-99.99,,2013-03-28 13:22:00,
2013-03-28 07:32:00,17.0,11.0,-100.00,NW,325,4.0,8.0,79,0.00,,,-99.99,,2013-03-28 13:32:00,
2013-03-28 07:42:00,17.0,12.0,-100.00,NNW,340,4.0,6.0,79,0.00,,,-99.99,,2013-03-28 13:42:00,
2013-03-28 07:52:00,18.0,12.0,-100.00,NW,325,3.0,6.0,79,0.00,,,-99.99,,2013-03-28 13:52:00,
2013-03-28 08:02:00,19.0,14.0,-100.00,NW,315,3.0,7.0,79,0.00,,,-99.99,,2013-03-28 14:02:00,
2013-03-28 08:12:00,20.0,15.0,-100.00,WNW,290,4.0,6.0,79,0.00,,,-99.99,,2013-03-28 14:12:00,
2013-03-28 08:22:00,21.0,16.0,-100.00,NW,305,5.0,6.0,79,0.00,,,-99.99,,2013-03-28 14:22:00,
2013-03-28 08:32:00,23.0,17.0,-100.00,NW,310,6.0,7.0,77,0.00,,,-99.99,,2013-03-28 14:32:00,
2013-03-28 08:42:00,25.0,18.0,-100.00,NW,310,4.0,7.0,73,0.00,,,-99.99,,2013-03-28 14:42:00,
2013-03-28 08:52:00,27.0,18.0,-100.00,SW,230,2.0,8.0,69,0.00,,,-99.99,,2013-03-28 14:52:00,
2013-03-28 09:02:00,28.0,19.0,-100.00,SW,220,4.0,4.0,67,0.00,,,-99.99,,2013-03-28 15:02:00,
2013-03-28 09:12:00,27.0,18.0,-100.00,ENE,65,2.0,4.0,69,0.00,,,-99.99,,2013-03-28 15:12:00,
2013-03-28 09:22:00,28.0,19.0,-100.00,NE,35,1.0,2.0,71,0.00,,,-99.99,,2013-03-28 15:22:00,
2013-03-28 09:33:00,29.0,21.0,-100.00,SW,215,1.0,2.0,69,0.00,,,-99.99,,2013-03-28 15:33:00,
2013-03-28 09:43:00,31.0,22.0,-100.00,ESE,120,1.0,1.0,65,0.00,,,-99.99,,2013-03-28 15:43:00,
2013-03-28 09:52:00,35.0,21.0,-100.00,East,100,1.0,2.0,57,0.00,,,-99.99,,2013-03-28 15:52:00,
2013-03-28 10:02:00,37.0,20.0,-100.00,NNE,30,1.0,2.0,50,0.00,,,-99.99,,2013-03-28 16:02:00,
2013-03-28 10:12:00,39.0,19.0,-100.00,NE,45,2.0,4.0,45,0.00,,,-99.99,,2013-03-28 16:12:00,
2013-03-28 10:23:00,39.0,18.0,-100.00,SE,135,3.0,6.0,42,0.00,,,-99.99,,2013-03-28 16:23:00,
2013-03-28 10:32:00,40.0,19.0,-100.00,ENE,75,1.0,5.0,42,0.00,,,-99.99,,2013-03-28 16:32:00,
2013-03-28 10:42:00,41.0,19.0,-100.00,SSE,155,3.0,6.0,41,0.00,,,-99.99,,2013-03-28 16:42:00,
2013-03-28 10:52:00,42.0,19.0,-100.00,South,185,2.0,6.0,38,0.00,,,-99.99,,2013-03-28 16:52:00,
2013-03-28 11:02:00,42.0,15.0,-100.00,ESE,115,6.0,9.0,33,0.00,,,-99.99,,2013-03-28 17:02:00,
2013-03-28 11:12:00,42.0,15.0,-100.00,South,175,4.0,8.0,33,0.00,,,-99.99,,2013-03-28 17:12:00,
2013-03-28 11:22:00,43.0,14.0,-100.00,SSE,150,4.0,9.0,31,0.00,,,-99.99,,2013-03-28 17:22:00,
2013-03-28 11:32:00,44.0,13.0,-100.00,SE,140,4.0,9.0,28,0.00,,,-99.99,,2013-03-28 17:32:00,
2013-03-28 11:42:00,44.0,11.0,-100.00,SSE,160,6.0,8.0,26,0.00,,,-99.99,,2013-03-28 17:42:00,
2013-03-28 11:52:00,44.0,11.0,-100.00,SW,220,2.0,8.0,26,0.00,,,-99.99,,2013-03-28 17:52:00,
2013-03-28 12:02:00,46.0,13.0,-100.00,SSW,195,2.0,6.0,25,0.00,,,-99.99,,2013-03-28 18:02:00,
2013-03-28 12:12:00,45.0,11.0,-100.00,West,265,2.0,9.0,24,0.00,,,-99.99,,2013-03-28 18:12:00,
2013-03-28 12:22:00,43.0,9.0,-100.00,SSW,195,5.0,9.0,24,0.00,,,-99.99,,2013-03-28 18:22:00,
2013-03-28 12:32:00,46.0,11.0,-100.00,South,190,4.0,7.0,23,0.00,,,-99.99,,2013-03-28 18:32:00,
2013-03-28 12:42:00,45.0,10.0,-100.00,SE,145,4.0,9.0,23,0.00,,,-99.99,,2013-03-28 18:42:00,
2013-03-28 12:52:00,45.0,10.0,-100.00,SSE,155,5.0,11.0,23,0.00,,,-99.99,,2013-03-28 18:52:00,
2013-03-28 13:02:00,46.0,11.0,-100.00,South,180,7.0,12.0,23,0.00,,,-99.99,,2013-03-28 19:02:00,
2013-03-28 13:12:00,46.0,11.0,-100.00,East,90,3.0,11.0,23,0.00,,,-99.99,,2013-03-28 19:12:00,
2013-03-28 13:22:00,46.0,10.0,-100.00,NNE,25,6.0,10.0,23,0.00,,,-99.99,,2013-03-28 19:22:00,
2013-03-28 13:33:00,45.0,10.0,-100.00,NNE,15,6.0,15.0,23,0.00,,,-99.99,,2013-03-28 19:33:00,
2013-03-28 13:42:00,44.0,10.0,-100.00,NE,35,4.0,10.0,24,0.00,,,-99.99,,2013-03-28 19:42:00,
2013-03-28 13:52:00,46.0,10.0,-100.00,NNW,340,1.0,7.0,22,0.00,,,-99.99,,2013-03-28 19:52:00,
2013-03-28 14:03:00,48.0,10.0,-100.00,SSW,195,3.0,5.0,21,0.00,,,-99.99,,2013-03-28 20:03:00,
2013-03-28 14:12:00,48.0,11.0,-100.00,NW,320,5.0,15.0,21,0.00,,,-99.99,,2013-03-28 20:12:00,
2013-03-28 14:32:00,48.0,10.0,-100.00,West,270,10.0,18.0,21,0.00,,,-99.99,,2013-03-28 20:32:00,
2013-03-28 14:42:00,45.0,8.0,-100.00,WSW,245,7.0,12.0,21,0.00,,,-99.99,,2013-03-28 20:42:00,
2013-03-28 14:52:00,45.0,9.0,-100.00,SW,235,6.0,14.0,22,0.00,,,-99.99,,2013-03-28 20:52:00,
2013-03-28 15:02:00,44.0,8.0,-100.00,WSW,240,10.0,14.0,23,0.00,,,-99.99,,2013-03-28 21:02:00,
2013-03-28 15:12:00,44.0,8.0,-100.00,SW,220,12.0,17.0,23,0.00,,,-99.99,,2013-03-28 21:12:00,
2013-03-28 15:22:00,45.0,10.0,-100.00,WNW,300,9.0,13.0,23,0.00,,,-99.99,,2013-03-28 21:22:00,
2013-03-28 15:32:00,44.0,10.0,-100.00,NNW,345,13.0,17.0,24,0.00,,,-99.99,,2013-03-28 21:32:00,
2013-03-28 15:43:00,43.0,11.0,-100.00,NNW,335,13.0,19.0,26,0.00,,,-99.99,,2013-03-28 21:43:00,
2013-03-28 15:53:00,44.0,12.0,-100.00,NNW,330,9.0,15.0,26,0.00,,,-99.99,,2013-03-28 21:53:00,
2013-03-28 16:02:00,44.0,11.0,-100.00,NW,325,10.0,14.0,26,0.00,,,-99.99,,2013-03-28 22:02:00,
2013-03-28 16:12:00,43.0,11.0,-100.00,NW,305,15.0,17.0,26,0.00,,,-99.99,,2013-03-28 22:12:00,
2013-03-28 16:22:00,43.0,10.0,-100.00,NW,325,8.0,16.0,25,0.00,,,-99.99,,2013-03-28 22:22:00,
2013-03-28 16:32:00,44.0,11.0,-100.00,NNE,25,6.0,10.0,25,0.00,,,-99.99,,2013-03-28 22:32:00,
2013-03-28 16:42:00,43.0,12.0,-100.00,North,5,11.0,13.0,28,0.00,,,-99.99,,2013-03-28 22:42:00,
2013-03-28 16:52:00,42.0,12.0,-100.00,North,10,8.0,14.0,28,0.00,,,-99.99,,2013-03-28 22:52:00,
2013-03-28 17:02:00,42.0,12.0,-100.00,NNE,15,6.0,9.0,28,0.00,,,-99.99,,2013-03-28 23:02:00,
2013-03-28 17:12:00,43.0,12.0,-100.00,NW,325,4.0,6.0,28,0.00,,,-99.99,,2013-03-28 23:12:00,
2013-03-28 17:22:00,42.0,12.0,-100.00,NNW,340,4.0,9.0,28,0.00,,,-99.99,,2013-03-28 23:22:00,
2013-03-28 17:32:00,41.0,11.0,-100.00,WSW,250,3.0,19.0,28,0.00,,,-99.99,,2013-03-28 23:32:00,
2013-03-28 17:42:00,41.0,10.0,-100.00,SE,130,2.0,12.0,26,0.00,,,-99.99,,2013-03-28 23:42:00,
2013-03-28 17:52:00,42.0,10.0,-100.00,SSE,155,1.0,4.0,26,0.00,,,-99.99,,2013-03-28 23:52:00,
2013-03-28 18:02:00,42.0,11.0,-100.00,North,5,3.0,8.0,28,0.00,,,-99.99,,2013-03-29 00:02:00,
2013-03-28 18:12:00,42.0,12.0,-100.00,NNE,30,6.0,7.0,28,0.00,,,-99.99,,2013-03-29 00:12:00,
2013-03-28 18:22:00,40.0,13.0,-100.00,NE,45,7.0,10.0,31,0.00,,,-99.99,,2013-03-29 00:22:00,
2013-03-28 18:32:00,40.0,13.0,-100.00,ENE,70,4.0,6.0,32,0.00,,,-99.99,,2013-03-29 00:32:00,
2013-03-28 18:42:00,40.0,13.0,-100.00,SE,145,6.0,7.0,33,0.00,,,-99.99,,2013-03-29 00:42:00,
2013-03-28 18:52:00,39.0,14.0,-100.00,SE,145,8.0,10.0,35,0.00,,,-99.99,,2013-03-29 00:52:00,
2013-03-28 19:02:00,39.0,16.0,-100.00,SSE,155,8.0,9.0,38,0.00,,,-99.99,,2013-03-29 01:02:00,
2013-03-28 19:12:00,38.0,18.0,-100.00,South,170,8.0,11.0,43,0.00,,,-99.99,,2013-03-29 01:12:00,
2013-03-28 19:22:00,38.0,18.0,-100.00,South,170,8.0,11.0,43,0.00,,,-99.99,,2013-03-29 01:22:00,
2013-03-28 19:32:00,36.0,18.0,-100.00,SSE,165,7.0,9.0,47,0.00,,,-99.99,,2013-03-29 01:32:00,
2013-03-28 19:42:00,36.0,19.0,-100.00,SW,230,5.0,7.0,49,0.00,,,-99.99,,2013-03-29 01:42:00,
2013-03-28 19:52:00,35.0,19.0,-100.00,West,275,6.0,9.0,50,0.00,,,-99.99,,2013-03-29 01:52:00,
2013-03-28 20:02:00,35.0,19.0,-100.00,West,280,4.0,6.0,50,0.00,,,-99.99,,2013-03-29 02:02:00,
2013-03-28 20:12:00,35.0,19.0,-100.00,West,275,6.0,7.0,51,0.00,,,-99.99,,2013-03-29 02:12:00,
2013-03-28 20:22:00,33.0,20.0,-100.00,West,265,7.0,8.0,56,0.00,,,-99.99,,2013-03-29 02:22:00,
2013-03-28 20:32:00,33.0,20.0,-100.00,West,270,4.0,7.0,58,0.00,,,-99.99,,2013-03-29 02:32:00,
2013-03-28 20:42:00,32.0,20.0,-100.00,WNW,295,6.0,6.0,60,0.00,,,-99.99,,2013-03-29 02:42:00,
2013-03-28 20:52:00,32.0,20.0,-100.00,NW,310,6.0,7.0,62,0.00,,,-99.99,,2013-03-29 02:52:00,
2013-03-28 21:02:00,31.0,20.0,-100.00,NW,325,5.0,6.0,62,0.00,,,-99.99,,2013-03-29 03:02:00,
2013-03-28 21:12:00,31.0,20.0,-100.00,WNW,300,2.0,6.0,63,0.00,,,-99.99,,2013-03-29 03:12:00,
2013-03-28 21:22:00,31.0,21.0,-100.00,South,175,4.0,7.0,65,0.00,,,-99.99,,2013-03-29 03:22:00,
2013-03-28 21:32:00,31.0,22.0,-100.00,South,185,2.0,5.0,65,0.00,,,-99.99,,2013-03-29 03:32:00,
2013-03-28 21:42:00,31.0,21.0,-100.00,South,175,3.0,4.0,65,0.00,,,-99.99,,2013-03-29 03:42:00,
2013-03-28 21:53:00,28.0,19.0,-100.00,West,270,5.0,6.0,68,0.00,,,-99.99,,2013-03-29 03:53:00,
2013-03-28 22:03:00,27.0,19.0,-100.00,West,275,4.0,7.0,73,0.00,,,-99.99,,2013-03-29 04:03:00,
2013-03-28 22:12:00,27.0,20.0,-100.00,West,280,2.0,4.0,75,0.00,,,-99.99,,2013-03-29 04:12:00,
2013-03-28 22:22:00,29.0,22.0,-100.00,WSW,240,5.0,6.0,75,0.00,,,-99.99,,2013-03-29 04:22:00,
2013-03-28 22:33:00,30.0,22.0,-100.00,WSW,240,9.0,10.0,71,0.00,,,-99.99,,2013-03-29 04:33:00,
2013-03-28 22:43:00,31.0,23.0,-100.00,SW,235,9.0,10.0,71,0.00,,,-99.99,,2013-03-29 04:43:00,
2013-03-28 22:52:00,32.0,22.0,-100.00,WSW,250,6.0,11.0,65,0.00,,,-99.99,,2013-03-29 04:52:00,
2013-03-28 23:03:00,29.0,20.0,-100.00,NW,320,6.0,7.0,68,0.00,,,-99.99,,2013-03-29 05:03:00,
2013-03-28 23:12:00,28.0,20.0,-100.00,NW,320,6.0,9.0,71,0.00,,,-99.99,,2013-03-29 05:12:00,
2013-03-28 23:23:00,27.0,19.0,-100.00,NNW,345,3.0,6.0,72,0.00,,,-99.99,,2013-03-29 05:23:00,
2013-03-28 23:33:00,26.0,19.0,-100.00,NNE,15,3.0,7.0,74,0.00,,,-99.99,,2013-03-29 05:33:00,
2013-03-28 23:43:00,26.0,20.0,-100.00,NNW,335,4.0,6.0,76,0.00,,,-99.99,,2013-03-29 05:43:00,
2013-03-28 23:52:00,25.0,19.0,-100.00,NW,325,4.0,5.0,77,0.00,,,-99.99,,2013-03-29 05:52:00,